[[{"header":{"parameterUnit":"m.s-1","parameterCategory":1,"la1":30.2991,"la2":30.254,"lo1":-89.0895,"lo2":-89.0444,"dy":0.0017,"dx":0.0017,"nx":28,"ny":28,"refTime":"2025-08-30T03:00:00:Z","depth":0,"parameterNumber":2,"parameterNumberName":"U-component_of_WINDS"},"data":[0,0,0,0,0,0,0,0,0,0,0,0,0,0,0,0,0,0,0,0,0,0,0,0,0,0,0,0,0,0,0,0,0,0,0,0,0,0,0,0,0,0,0,0,0,0,0,0,0,0,0,0,0,0,0,0,0,0,0.7549,0.7549,0,0.7574,0.7574,0.7575,0.7492,0.749,0.7487,0.7485,0.7517,0.752,0.7523,0,0,0,0,0,0,0,0,0,0,0,0,0,0.7436,0.7438,0.7549,0.7549,0.7549,0.7574,0.7575,0.7575,0.7493,0.749,0.7487,0.7484,0.7516,0.752,0.7523,0,0,0,0,0,0,0,0,0,0,0,0,0,0.7476,0.7439,0.7549,0.7511,0.7508,0.7574,0.7575,0.7575,0.7493,0.749,0.7486,0.7482,0.7514,0.7519,0.7524,0.7629,0,0,0.7539,0.7541,0,0,0,0,0,0,0,0,0.7474,0.748,0.7516,0.7514,0.7511,0.7526,0.7546,0.7593,0.7494,0.7499,0.7485,0.748,0.7523,0.7527,0.754,0.763,0.7632,0.7539,0.7542,0.7544,0.7545,0,0,0,0,0,0,0,0.7471,0.7478,0.7559,0.7517,0.7514,0.7495,0.7497,0.7555,0.7532,0.7498,0.7492,0.7496,0.7521,0.7536,0.7541,0.7632,0.7539,0.7543,0.7546,0.7548,0.7813,0.7817,0,0,0,0,0,0,0.7472,0.7477,0.7558,0.756,0.7482,0.7501,0.7502,0.7525,0.7531,0.7529,0.75,0.7492,0.753,0.7535,0.7541,0.7667,0.7544,0.7548,0.7551,0.7809,0.7814,0.7819,0,0,0,0,0,0,0.747,0.748,0.7557,0.7517,0.7525,0.7506,0.7533,0.7528,0.7542,0.7532,0.7528,0.7518,0.7527,0.7535,0.7608,0.7667,0.7551,0.7555,0.7804,0.7811,0.7817,0.7918,0,0,0,0,0,0,0.7467,0.748,0.7518,0.7518,0.7527,0.7622,0.7536,0.7531,0.755,0.7541,0.7549,0.7547,0.7524,0.7601,0.7613,0.7671,0.7559,0.7799,0.7807,0.7815,0.7909,0.7926,0.7942,0,0,0,0,0,0.7463,0.7546,0.752,0.753,0.7574,0.7625,0.7631,0.7602,0.7555,0.7594,0.7588,0.7546,0.7658,0.761,0.7622,0.7683,0.7795,0.7805,0.7814,0.7902,0.7923,0.7941,0,0,0,0,0,0,0.7554,0.7545,0.7516,0.7601,0.7614,0.7611,0.7659,0.7625,0.7653,0.7644,0.7609,0.7611,0.7692,0.7694,0.764,0.7786,0.7719,0.7731,0.7782,0.7802,0.7818,0.7816,0.7563,0,0,0,0,0,0.7584,0.7624,0.7615,0.769,0.7698,0.7678,0.7699,0.7676,0.7689,0.7695,0.7694,0.771,0.7749,0.7775,0.781,0.7909,0.7911,0.7957,0.7973,0.7987,0.7998,0.8053,0.8074,0.785,0.785,0.7849,0,0,0.7646,0.7646,0.7674,0.7709,0.7716,0.7761,0.7683,0.7733,0.7767,0.7703,0.7772,0.7772,0.7788,0.7876,0.7914,0.788,0.8061,0.7999,0.8009,0.8014,0.8065,0.8086,0.8105,0.7856,0.7855,0.7854,0,0,0.7783,0.7785,0.785,0.7859,0.7871,0.7857,0.7873,0.7876,0.7873,0.7942,0.7895,0.7936,0.8003,0.8017,0.8033,0.8177,0.8141,0.819,0.8276,0.833,0.8348,0.8363,0.8417,0.8436,0.8201,0.8201,0.8202,0,0.7859,0.7922,0.7888,0.7941,0.796,0.7902,0.7969,0.798,0.8004,0.8019,0.7981,0.8065,0.8072,0.8163,0.8198,0.8212,0.8231,0.8189,0.8347,0.8363,0.8377,0.8428,0.8448,0.8207,0.8207,0.8206,0.8206,0,0.8016,0.8062,0.8113,0.8136,0.816,0.822,0.8197,0.8226,0.8201,0.8193,0.8265,0.8271,0.8308,0.8327,0.8304,0.8416,0.8395,0.8353,0.8285,0.8405,0.8452,0.8471,0.8216,0.8214,0.8212,0.8211,0,0,0.821,0.8214,0.8234,0.8245,0.8255,0.8291,0.835,0.8384,0.8411,0.843,0.848,0.8539,0.85,0.8519,0.8497,0.8544,0.8662,0.8496,0.8496,0.8528,0.8789,0.8822,0.8845,0.8637,0.8641,0.8643,0.8788,0,0.8345,0.8444,0.8416,0.8516,0.8559,0.8507,0.8558,0.8572,0.8566,0.8604,0.8598,0.8641,0.8586,0.8597,0.8641,0.8638,0.8714,0.8627,0.8686,0.8689,0.8685,0.8869,0.8903,0.9039,0.8806,0.8809,0.8811,0,0.8516,0.8541,0.8645,0.865,0.8668,0.8714,0.8745,0.878,0.8796,0.8789,0.8811,0.878,0.8841,0.8772,0.8858,0.8799,0.8822,0.8825,0.883,0.8835,0.8758,0.8881,0.9082,0.9103,0.884,0.8838,0.8836,0,0.8649,0.8709,0.8779,0.879,0.8798,0.8833,0.8838,0.8849,0.8873,0.89,0.8916,0.8951,0.8971,0.9,0.8981,0.8932,0.9071,0.8999,0.9069,0.907,0.9101,0.91,0.931,0.9114,0.9113,0.9113,0.9113,0,0.8803,0.887,0.8839,0.8883,0.8957,0.8926,0.9001,0.9,0.9012,0.9056,0.9013,0.9057,0.9028,0.907,0.9056,0.9131,0.914,0.9137,0.9133,0.9142,0.9143,0.9157,0.9148,0.9118,0.9117,0.9116,0.9115,0,0.8964,0.8946,0.902,0.9022,0.9024,0.9079,0.9081,0.9123,0.9115,0.9172,0.9184,0.9172,0.9219,0.9203,0.9254,0.9244,0.934,0.9323,0.9335,0.9331,0.9402,0.9396,0.963,0.966,0.9443,0.9445,0.9447,0,0.9065,0.9114,0.9122,0.9148,0.9156,0.9198,0.9222,0.9195,0.9221,0.9245,0.9285,0.9328,0.9361,0.944,0.9438,0.9477,0.9462,0.9541,0.9468,0.9476,0.9465,0.9463,0.9469,0.9556,0.9559,0.9561,0.9562,0,0.9245,0.9234,0.9269,0.9302,0.9331,0.9356,0.9377,0.9402,0.9376,0.9409,0.9456,0.9482,0.9534,0.9579,0.9616,0.9624,0.9591,0.9586,0.9604,0.9614,0.962,0.962,0.9376,0.958,0.9579,0.9577,0.9576,0.9576,0.938,0.9423,0.9435,0.9476,0.9489,0.9511,0.9551,0.9548,0.9586,0.9626,0.9608,0.9664,0.9681,0.9726,0.9739,0.9785,0.9754,0.978,0.9787,0.9795,0.9805,0.9612,0.9791,0.979,0.979,0.9789,0.9789,0,0.956,0.9565,0.9604,0.9635,0.9668,0.9632,0.9654,0.9685,0.9734,0.9753,0.9786,0.9843,0.9887,0.9888,0.993,0.9966,0.9952,0.9978,0.9976,0.9979,0.9828,0.9809,0.9989,0.9989,0.9989,0.9989,0.9989,0.9989,0.9657,0.9728,0.972,0.9799,0.9804,0.9857,0.9874,0.9895,0.9909,0.9974,1.001,1.001,1.0022,1.0065,1.0105,1.0105,1.0123,1.0155,1.015,1.0009,0.9989,0.997,0.9952,1.0159,1.0159,1.0297,1.0298,1.0299]},{"header":{"parameterUnit":"m.s-1","parameterCategory":1,"la1":30.2991,"la2":30.254,"lo1":-89.0895,"lo2":-89.0444,"dy":0.0017,"dx":0.0017,"nx":28,"ny":28,"refTime":"2025-08-30T03:00:00:Z","depth":0,"parameterNumber":3,"parameterNumberName":"V-component_of_WINDS"},"data":[0,0,0,0,0,0,0,0,0,0,0,0,0,0,0,0,0,0,0,0,0,0,0,0,0,0,0,0,0,0,0,0,0,0,0,0,0,0,0,0,0,0,0,0,0,0,0,0,0,0,0,0,0,0,0,0,0,0,0.3443,0.3445,0,0.356,0.3562,0.3563,0.3574,0.3573,0.3572,0.3571,0.3695,0.3699,0.3704,0,0,0,0,0,0,0,0,0,0,0,0,0,0.3237,0.3241,0.3443,0.3445,0.3446,0.356,0.3562,0.3563,0.3575,0.3573,0.3572,0.357,0.3693,0.3699,0.3704,0,0,0,0,0,0,0,0,0,0,0,0,0,0.3338,0.3242,0.3443,0.3466,0.3469,0.356,0.3562,0.3564,0.3575,0.3573,0.3571,0.357,0.3692,0.3698,0.3705,0.3783,0,0,0.3725,0.3728,0,0,0,0,0,0,0,0,0.3332,0.3345,0.3461,0.3464,0.3468,0.3551,0.3534,0.3637,0.3575,0.3535,0.3571,0.3569,0.3649,0.3659,0.3685,0.3789,0.3794,0.3726,0.373,0.3733,0.3734,0,0,0,0,0,0,0,0.3325,0.334,0.349,0.3462,0.3467,0.3472,0.3484,0.3554,0.3601,0.3538,0.3539,0.3553,0.365,0.3678,0.3688,0.3796,0.3726,0.3731,0.3736,0.3738,0.3974,0.3976,0,0,0,0,0,0,0.3313,0.3334,0.3486,0.3493,0.3394,0.3477,0.3491,0.3526,0.36,0.3609,0.3554,0.3553,0.3668,0.368,0.3692,0.3792,0.3733,0.3739,0.3743,0.3972,0.3975,0.3977,0,0,0,0,0,0,0.3308,0.3326,0.3481,0.3414,0.3434,0.3483,0.3522,0.3529,0.3557,0.3612,0.3621,0.3574,0.3667,0.3683,0.3761,0.3796,0.3742,0.3748,0.3969,0.3973,0.3976,0.3988,0,0,0,0,0,0,0.3303,0.3325,0.3353,0.3415,0.3438,0.3546,0.3524,0.3533,0.3568,0.3568,0.3633,0.3642,0.3667,0.3751,0.3768,0.3804,0.3753,0.3966,0.3971,0.3975,0.3985,0.3992,0.3998,0,0,0,0,0,0.3295,0.3352,0.3354,0.3373,0.3474,0.3548,0.3561,0.3587,0.3571,0.3602,0.3637,0.364,0.3789,0.3759,0.3778,0.3817,0.3964,0.3969,0.3974,0.3982,0.3991,0.3997,0,0,0,0,0,0,0.3294,0.336,0.3364,0.3442,0.3489,0.3549,0.3588,0.3595,0.3648,0.3646,0.3677,0.3692,0.377,0.3801,0.3766,0.3898,0.3875,0.3884,0.3875,0.3883,0.3889,0.3881,0.3759,0,0,0,0,0,0.3303,0.3355,0.3411,0.3475,0.3498,0.3539,0.3572,0.3589,0.3639,0.366,0.3701,0.3752,0.3811,0.3848,0.3905,0.399,0.4006,0.4026,0.4032,0.4037,0.4045,0.4096,0.4107,0.3994,0.3994,0.3994,0,0,0.3322,0.3364,0.3396,0.3476,0.3514,0.3571,0.3556,0.3615,0.3658,0.3669,0.3746,0.3778,0.3837,0.392,0.3958,0.3948,0.408,0.4044,0.4047,0.4053,0.4103,0.4113,0.4123,0.3997,0.3997,0.3996,0,0,0.3385,0.3421,0.348,0.3519,0.3577,0.3605,0.3619,0.3679,0.3701,0.3778,0.3788,0.3841,0.394,0.3983,0.4018,0.4101,0.4107,0.4118,0.4152,0.4201,0.421,0.4218,0.4251,0.4262,0.4126,0.4126,0.4126,0,0.3402,0.3484,0.3509,0.3569,0.3606,0.3618,0.3679,0.3717,0.3791,0.3817,0.3805,0.3932,0.3972,0.4067,0.4088,0.4114,0.4134,0.4112,0.4206,0.4214,0.4223,0.4254,0.4266,0.4127,0.4127,0.4127,0.4127,0,0.3504,0.3561,0.3602,0.3673,0.3714,0.3775,0.3812,0.3851,0.3864,0.3894,0.3974,0.4023,0.4092,0.4115,0.4129,0.4213,0.4206,0.4199,0.4177,0.4234,0.4265,0.4277,0.4129,0.4129,0.4128,0.4128,0,0,0.3569,0.3654,0.3669,0.3703,0.3769,0.3816,0.3878,0.3945,0.3979,0.4031,0.4086,0.4172,0.4167,0.4207,0.4225,0.4268,0.4335,0.4257,0.4259,0.4272,0.4435,0.4441,0.4454,0.4339,0.4342,0.4343,0.4431,0,0.3642,0.3751,0.3777,0.3872,0.3928,0.3942,0.3997,0.4045,0.4075,0.4129,0.4163,0.4224,0.4212,0.4236,0.4279,0.4318,0.4369,0.4312,0.4394,0.4397,0.4381,0.447,0.4475,0.4556,0.4443,0.4445,0.4446,0,0.3741,0.3794,0.3895,0.3957,0.3981,0.403,0.4095,0.4145,0.4202,0.4221,0.4266,0.4282,0.4351,0.4324,0.4422,0.4383,0.4418,0.4443,0.4446,0.4457,0.4426,0.4485,0.4582,0.4595,0.4465,0.4463,0.4462,0,0.3782,0.3879,0.3953,0.3981,0.4054,0.4089,0.4122,0.4176,0.4215,0.4273,0.4299,0.4364,0.44,0.4451,0.4485,0.4462,0.4581,0.4557,0.4602,0.4601,0.4627,0.4626,0.4734,0.4647,0.4647,0.4646,0.4646,0,0.3861,0.3923,0.3972,0.4018,0.4089,0.4119,0.4189,0.4222,0.4272,0.4326,0.4342,0.4393,0.4434,0.4492,0.4519,0.4598,0.4613,0.4633,0.464,0.4633,0.4631,0.4658,0.4654,0.465,0.4649,0.4648,0.4648,0,0.3919,0.3954,0.4036,0.4099,0.4116,0.4166,0.4222,0.4268,0.4299,0.4369,0.4387,0.4436,0.4506,0.4544,0.4631,0.465,0.4739,0.4741,0.4719,0.4723,0.4767,0.4763,0.4898,0.4918,0.4815,0.4816,0.4817,0,0.3968,0.4016,0.4085,0.4122,0.4155,0.4214,0.4254,0.4287,0.4329,0.4399,0.4438,0.4508,0.4566,0.4677,0.4723,0.479,0.4797,0.4839,0.4807,0.4799,0.4801,0.4798,0.4805,0.4845,0.4846,0.4847,0.4847,0,0.4053,0.4069,0.4125,0.4189,0.4236,0.4288,0.434,0.437,0.4412,0.4459,0.453,0.4575,0.4664,0.4735,0.4807,0.4844,0.4855,0.4857,0.4872,0.4866,0.4852,0.4863,0.4737,0.4854,0.4854,0.4853,0.4853,0.4852,0.411,0.4155,0.421,0.4274,0.4316,0.4365,0.4413,0.445,0.4509,0.4583,0.46,0.4676,0.4735,0.4833,0.4871,0.4933,0.4925,0.4946,0.4951,0.4956,0.496,0.4841,0.4946,0.4946,0.4946,0.4946,0.4946,0,0.4198,0.4235,0.4293,0.4365,0.4416,0.4419,0.4478,0.4521,0.4587,0.464,0.4697,0.4781,0.485,0.4902,0.4974,0.5013,0.502,0.5031,0.503,0.5039,0.4961,0.4942,0.5025,0.5025,0.5025,0.5025,0.5025,0.5025,0.425,0.4326,0.4349,0.4448,0.4485,0.4558,0.4592,0.4638,0.4682,0.4773,0.4831,0.4863,0.4918,0.4994,0.506,0.5073,0.51,0.5111,0.5126,0.5052,0.5044,0.5036,0.5019,0.5116,0.5116,0.52,0.52,0.5201]}]]